Tracking 35331 objects as of 15-Sep-2026
HD Live streaming from Space Station
objects crossing your sky now

QIANFAN-49

Track QIANFAN-49 now!
10-day predictions
QIANFAN-49 is classified as:


NORAD ID: 62250
Int'l Code: 2024-232P
Launch date: December 5, 2024
Source: People's Republic of China (PRC)
Launch site: Taiyaun Space Center, China (TSC)
Your satellite tracking list
Your tracking list is empty




NASA's NSSDC Master Catalog

Two Line Element Set (TLE):
1 62250U 24232P   26257.87294585  .00000100  00000-0  13670-3 0  9999
2 62250  89.0159  13.5228 0016077 115.9365 244.3445 13.51029587105127
Source of the keplerian elements: AFSPC